When you browse on this site, cookies collect data to enhance your experience and personalize the content and advertising you see.
Visit our Privacy Policy to learn more. By continuing to use the site, you agree to this use of cookies and data.
  • In Österreich
  • Länderverzeichnis
  • Für 7 Tage
  • Wassertemperatur
  • Satellitenkarten
  • Wetterkarte
  • News
  • Widgets
  • user-avatar
    Anmelden

    Stündliche Wetter Bronislav

    Heute, 23 Mai, Donnerstag

    Zeit Temperatur Niederschläge Wind Luftdruck Luftfeuchtigkeit
    00:00 +14°C° 0 mm 1 m/S 745 mmHg 85%
    01:00 +14°C° 0 mm 1 m/S 745 mmHg 86%
    02:00 +14°C° 0 mm 1 m/S 745 mmHg 86%
    03:00 +14°C° 0 mm 1 m/S 745 mmHg 85%
    04:00 +14°C° 0 mm 1 m/S 745 mmHg 85%
    05:00 +14°C° 0 mm 1 m/S 745 mmHg 85%
    06:00 +16°C° 0 mm 1 m/S 745 mmHg 79%
    07:00 +19°C° 0 mm 1 m/S 745 mmHg 72%
    08:00 +21°C° 0 mm 1 m/S 745 mmHg 66%
    09:00 +22°C° 0.4 mm 1 m/S 745 mmHg 63%
    10:00 +23°C° 0.4 mm 1 m/S 745 mmHg 60%
    11:00 +24°C° 0.4 mm 1 m/S 745 mmHg 58%
    12:00 +25°C° 0.2 mm 1 m/S 745 mmHg 55%
    13:00 +26°C° 0.2 mm 1 m/S 745 mmHg 52%
    14:00 +26°C° 0.2 mm 1 m/S 745 mmHg 49%
    15:00 +26°C° 0 mm 1 m/S 745 mmHg 49%
    16:00 +26°C° 0 mm 1 m/S 745 mmHg 50%
    17:00 +26°C° 0 mm 1 m/S 744 mmHg 50%
    18:00 +24°C° 0 mm 1 m/S 744 mmHg 57%
    19:00 +22°C° 0 mm 1 m/S 744 mmHg 63%
    20:00 +20°C° 0 mm 1 m/S 745 mmHg 69%
    21:00 +19°C° 0.1 mm 1 m/S 745 mmHg 72%
    22:00 +19°C° 0.1 mm 1 m/S 745 mmHg 75%
    23:00 +18°C° 0.1 mm 1 m/S 745 mmHg 78%

    Morgen, 24 Mai, Freitag

    Zeit Temperatur Niederschläge Wind Luftdruck Luftfeuchtigkeit
    00:00 +16°C° 0 mm 1 m/S 745 mmHg 80%
    01:00 +16°C° 0 mm 1 m/S 745 mmHg 81%
    02:00 +16°C° 0 mm 1 m/S 745 mmHg 82%
    03:00 +15°C° 0 mm 1 m/S 745 mmHg 84%
    04:00 +15°C° 0 mm 1 m/S 745 mmHg 85%
    05:00 +15°C° 0 mm 1 m/S 745 mmHg 87%
    06:00 +18°C° 0 mm 1 m/S 746 mmHg 81%
    07:00 +20°C° 0 mm 1 m/S 746 mmHg 75%
    08:00 +22°C° 0 mm 1 m/S 746 mmHg 69%
    09:00 +23°C° 0.8 mm 1 m/S 746 mmHg 67%
    10:00 +24°C° 0.8 mm 1 m/S 745 mmHg 65%
    11:00 +25°C° 0.8 mm 1 m/S 745 mmHg 63%
    12:00 +25°C° 0 mm 2 m/S 745 mmHg 58%
    13:00 +26°C° 0 mm 2 m/S 745 mmHg 54%
    14:00 +27°C° 0 mm 2 m/S 745 mmHg 50%
    15:00 +26°C° 1 mm 2 m/S 745 mmHg 58%
    16:00 +25°C° 1 mm 2 m/S 745 mmHg 65%
    17:00 +24°C° 1 mm 2 m/S 744 mmHg 73%
    18:00 +21°C° 0.6 mm 2 m/S 744 mmHg 79%
    19:00 +20°C° 0.6 mm 2 m/S 744 mmHg 84%
    20:00 +19°C° 0.6 mm 2 m/S 744 mmHg 90%
    21:00 +18°C° 1.1 mm 2 m/S 744 mmHg 91%
    22:00 +17°C° 1.1 mm 2 m/S 744 mmHg 93%
    23:00 +16°C° 1.1 mm 2 m/S 744 mmHg 94%

    übermorgen, 25 Mai, Samstag

    Zeit Temperatur Niederschläge Wind Luftdruck Luftfeuchtigkeit
    00:00 +16°C° 0 mm 2 m/S 744 mmHg 95%
    01:00 +16°C° 0 mm 1 m/S 744 mmHg 95%
    02:00 +15°C° 0 mm 1 m/S 744 mmHg 96%
    03:00 +15°C° 0 mm 1 m/S 744 mmHg 96%
    04:00 +15°C° 0 mm 2 m/S 744 mmHg 96%
    05:00 +15°C° 0 mm 2 m/S 744 mmHg 97%
    06:00 +16°C° 0 mm 2 m/S 744 mmHg 93%
    07:00 +18°C° 0 mm 2 m/S 744 mmHg 88%
    08:00 +19°C° 0 mm 2 m/S 744 mmHg 84%
    09:00 +20°C° 0.1 mm 3 m/S 744 mmHg 78%
    10:00 +21°C° 0.1 mm 3 m/S 744 mmHg 71%
    11:00 +23°C° 0.1 mm 4 m/S 744 mmHg 65%
    12:00 +23°C° 0.2 mm 4 m/S 744 mmHg 62%
    13:00 +23°C° 0.2 mm 4 m/S 744 mmHg 59%
    14:00 +25°C° 0.2 mm 4 m/S 744 mmHg 56%
    15:00 +23°C° 0.2 mm 4 m/S 744 mmHg 58%
    16:00 +23°C° 0.2 mm 4 m/S 744 mmHg 61%
    17:00 +22°C° 0.2 mm 4 m/S 743 mmHg 63%
    18:00 +20°C° 0 mm 3 m/S 743 mmHg 68%
    19:00 +19°C° 0 mm 3 m/S 744 mmHg 72%
    20:00 +17°C° 0 mm 2 m/S 744 mmHg 77%
    21:00 +16°C° 0 mm 2 m/S 744 mmHg 80%
    22:00 +15°C° 0 mm 2 m/S 744 mmHg 82%
    23:00 +14°C° 0 mm 2 m/S 744 mmHg 85%

    26 Mai, Sonntag

    Zeit Temperatur Niederschläge Wind Luftdruck Luftfeuchtigkeit
    00:00 +14°C° 0 mm 2 m/S 745 mmHg 88%
    01:00 +13°C° 0 mm 2 m/S 745 mmHg 91%
    02:00 +13°C° 0 mm 2 m/S 745 mmHg 93%
    03:00 +13°C° 0 mm 2 m/S 745 mmHg 94%
    04:00 +12°C° 0 mm 2 m/S 745 mmHg 95%
    05:00 +12°C° 0 mm 2 m/S 745 mmHg 95%
    06:00 +13°C° 0 mm 2 m/S 745 mmHg 87%
    07:00 +15°C° 0 mm 2 m/S 745 mmHg 79%
    08:00 +16°C° 0 mm 2 m/S 745 mmHg 71%
    09:00 +18°C° 0 mm 2 m/S 745 mmHg 66%
    10:00 +19°C° 0 mm 3 m/S 745 mmHg 62%
    11:00 +20°C° 0 mm 4 m/S 745 mmHg 57%
    12:00 +21°C° 0 mm 4 m/S 745 mmHg 55%
    13:00 +21°C° 0 mm 5 m/S 745 mmHg 53%
    14:00 +22°C° 0 mm 5 m/S 745 mmHg 50%
    15:00 +21°C° 0 mm 5 m/S 745 mmHg 52%
    16:00 +21°C° 0 mm 4 m/S 744 mmHg 54%
    17:00 +21°C° 0 mm 4 m/S 744 mmHg 55%
    18:00 +19°C° 0.2 mm 4 m/S 744 mmHg 65%
    19:00 +18°C° 0.2 mm 3 m/S 744 mmHg 74%
    20:00 +16°C° 0.2 mm 3 m/S 744 mmHg 83%
    21:00 +14°C° 0 mm 3 m/S 744 mmHg 87%
    22:00 +14°C° 0 mm 2 m/S 745 mmHg 90%
    23:00 +14°C° 0 mm 2 m/S 745 mmHg 93%

    27 Mai, Montag

    Zeit Temperatur Niederschläge Wind Luftdruck Luftfeuchtigkeit
    00:00 +13°C° 0 mm 2 m/S 745 mmHg 93%
    01:00 +12°C° 0 mm 2 m/S 745 mmHg 94%
    02:00 +12°C° 0 mm 2 m/S 746 mmHg 94%
    03:00 +12°C° 0 mm 2 m/S 746 mmHg 94%
    04:00 +10°C° 0 mm 3 m/S 746 mmHg 93%
    05:00 +10°C° 0 mm 3 m/S 746 mmHg 93%
    06:00 +12°C° 0 mm 3 m/S 747 mmHg 84%
    07:00 +13°C° 0 mm 3 m/S 747 mmHg 76%
    08:00 +14°C° 0 mm 4 m/S 747 mmHg 68%
    09:00 +17°C° 0 mm 4 m/S 747 mmHg 64%
    10:00 +18°C° 0 mm 4 m/S 748 mmHg 61%
    11:00 +19°C° 0 mm 4 m/S 748 mmHg 58%
    12:00 +20°C° 0 mm 4 m/S 748 mmHg 56%
    13:00 +21°C° 0 mm 4 m/S 747 mmHg 55%
    14:00 +22°C° 0 mm 3 m/S 747 mmHg 54%
    15:00 +22°C° 0 mm 3 m/S 747 mmHg 55%
    16:00 +23°C° 0 mm 2 m/S 747 mmHg 56%
    17:00 +23°C° 0 mm 2 m/S 747 mmHg 56%
    18:00 +21°C° 0 mm 2 m/S 747 mmHg 62%
    19:00 +20°C° 0 mm 1 m/S 747 mmHg 68%
    20:00 +19°C° 0 mm 1 m/S 747 mmHg 73%
    21:00 +18°C° 0 mm 1 m/S 747 mmHg 75%
    22:00 +16°C° 0 mm 2 m/S 747 mmHg 77%
    23:00 +16°C° 0 mm 2 m/S 747 mmHg 79%

    28 Mai, Dienstag

    Zeit Temperatur Niederschläge Wind Luftdruck Luftfeuchtigkeit
    00:00 +16°C° 0 mm 3 m/S 746 mmHg 79%
    01:00 +16°C° 0 mm 3 m/S 746 mmHg 78%
    02:00 +17°C° 0 mm 3 m/S 746 mmHg 78%
    03:00 +17°C° 0.8 mm 3 m/S 745 mmHg 83%
    04:00 +17°C° 0.8 mm 4 m/S 745 mmHg 89%
    05:00 +15°C° 0.8 mm 4 m/S 744 mmHg 95%
    06:00 +17°C° 1.4 mm 4 m/S 744 mmHg 94%
    07:00 +17°C° 1.4 mm 5 m/S 744 mmHg 93%
    08:00 +19°C° 1.4 mm 5 m/S 743 mmHg 93%
    09:00 +21°C° 0 mm 5 m/S 743 mmHg 84%
    10:00 +22°C° 0 mm 5 m/S 743 mmHg 76%
    11:00 +25°C° 0 mm 5 m/S 743 mmHg 67%
    12:00 +25°C° 0.6 mm 5 m/S 742 mmHg 68%
    13:00 +26°C° 0.6 mm 5 m/S 742 mmHg 69%
    14:00 +26°C° 0.6 mm 6 m/S 742 mmHg 70%
    15:00 +25°C° 1.7 mm 5 m/S 742 mmHg 74%
    16:00 +23°C° 1.7 mm 4 m/S 742 mmHg 79%
    17:00 +22°C° 1.7 mm 3 m/S 742 mmHg 83%
    18:00 +22°C° 1.2 mm 3 m/S 742 mmHg 86%
    19:00 +21°C° 1.2 mm 3 m/S 742 mmHg 88%
    20:00 +20°C° 1.2 mm 2 m/S 742 mmHg 91%
    21:00 +20°C° 0.1 mm 2 m/S 742 mmHg 92%
    22:00 +19°C° 0.1 mm 2 m/S 742 mmHg 93%
    23:00 +19°C° 0.1 mm 2 m/S 742 mmHg 94%
    Mehr zeigen